RH
8 15 29 41 48 60 53 50 69 74 74 70 69 70 72 78 75 66 64 63 56 47 37 33 31 26 27 30 31 30 41 56 57 56 63 64 64 74 80 84 89 90 90 94 99 100 99 99 98 98 98 98 97 92 95 99 99 99 98 97 95 94 94 91 90 90 85 76 72 75 77 76 70 69 70 69 68 68 69 66 60 52 47 43 41 41 37 32 27 23 21 20 17 13 13 13 12
6 11 25 39 40 48 48 55 76 75 68 65 61 63 65 62 58 57 60 56 39 23 18 22 25 23 27 29 26 27 39 45 44 52 61 65 72 80 85 90 94 97 97 98 100 100 100 100 100 100 100 100 99 92 90 97 99 99 101 101 96 94 93 89 87 88 85 74 64 63 68 73 72 67 66 70 71 69 67 65 60 52 44 37 35 37 35 31 26 24 22 21 23 19 12 11 11
6 11 23 34 26 32 49 60 69 64 59 58 56 58 57 51 55 63 64 47 21 14 23 34 38 35 37 32 24 25 33 37 39 50 60 66 70 72 82 92 96 100 100 100 100 100 100 100 100 100 100 100 100 96 93 97 100 99 100 101 99 95 90 86 86 86 86 80 68 61 60 63 69 71 65 64 68 69 65 61 56 50 44 37 34 33 29 26 25 25 22 21 25 22 17 14 11
6 14 25 31 25 35 54 63 68 62 55 54 55 56 55 53 56 56 49 32 15 17 28 40 45 40 42 38 26 27 38 44 45 50 56 61 60 59 73 89 95 99 100 100 100 100 100 100 100 100 100 100 100 100 98 99 100 100 101 100 99 97 93 90 87 85 84 81 74 67 65 62 64 69 68 65 67 67 62 57 51 49 46 39 37 35 28 23 24 26 23 22 22 24 28 21 14
6 19 32 38 39 47 56 64 67 57 52 54 53 52 53 52 46 40 35 29 20 19 25 37 43 36 37 37 30 28 34 39 44 51 57 57 54 54 66 82 89 94 99 100 100 100 100 99 99 100 99 99 100 100 100 100 100 100 100 99 100 99 100 98 95 93 88 84 79 68 64 65 65 61 62 68 73 70 64 62 57 54 51 45 42 40 33 25 24 26 25 24 23 28 33 23 18
15 28 39 46 50 53 55 58 55 46 47 47 47 48 46 44 40 36 35 32 24 20 23 26 29 32 38 38 33 31 31 35 40 45 54 58 58 57 62 74 82 87 92 96 100 100 100 100 97 99 98 97 99 100 100 100 101 100 100 100 99 97 98 100 99 97 90 89 84 74 69 67 67 64 65 71 76 73 69 72 71 65 58 51 47 45 40 33 29 29 29 30 29 30 37 36 29
23 33 41 47 51 56 52 44 40 37 39 37 38 42 39 39 39 39 39 33 25 20 19 23 29 37 42 40 39 41 39 38 37 41 49 54 55 57 59 67 76 80 85 90 97 99 100 100 98 98 98 98 99 100 100 100 101 100 100 100 99 94 94 94 93 89 84 90 90 86 81 71 70 72 72 74 77 76 71 70 73 70 62 56 55 53 46 42 41 37 36 38 37 35 36 37 33
22 34 41 45 48 53 44 31 31 32 35 36 36 38 38 40 40 39 37 31 24 19 15 22 33 37 42 43 47 50 46 45 46 47 47 47 49 51 55 60 69 75 80 86 93 97 98 99 100 99 98 99 100 100 100 100 100 100 100 100 100 97 92 89 90 86 75 79 87 88 82 75 79 85 85 85 85 82 75 71 71 70 70 71 71 68 63 60 58 53 50 47 50 54 47 38 37
21 35 42 44 43 42 36 28 28 29 31 32 33 35 37 38 37 34 32 27 19 17 17 22 27 32 41 45 50 52 50 53 52 49 46 46 47 48 51 54 60 65 72 78 85 91 94 96 97 98 96 94 96 99 100 100 100 100 101 99 100 101 96 91 92 91 80 72 74 80 82 85 91 94 97 98 95 89 82 78 73 69 71 77 81 82 82 78 70 67 66 59 57 65 67 61 56
14 28 37 38 33 28 29 30 27 28 28 27 28 27 29 29 29 27 24 19 14 15 21 24 23 26 34 38 44 47 47 52 52 52 50 50 50 51 52 52 53 56 60 64 69 76 82 87 90 91 90 88 91 95 97 98 99 100 100 99 98 99 100 98 95 93 90 84 77 81 87 93 98 97 99 100 99 96 90 82 75 75 77 78 81 84 89 91 84 77 76 72 64 62 66 66 67
10 20 31 32 30 27 29 30 27 28 27 24 23 21 23 23 22 19 15 13 13 16 20 21 19 20 26 30 36 39 41 44 46 49 51 53 55 54 52 51 50 50 52 54 56 59 64 72 77 82 83 83 86 89 91 91 93 95 97 97 95 95 98 100 99 94 93 93 88 90 91 93 100 101 100 100 100 99 95 91 82 83 87 84 80 81 91 99 95 86 78 78 76 72 69 64 66
10 20 28 31 34 32 30 28 26 27 24 19 18 20 20 18 15 13 12 13 14 16 17 18 19 23 27 28 32 35 38 40 42 46 49 52 52 51 50 48 47 46 48 48 49 50 52 57 62 68 72 76 79 83 86 87 89 90 92 93 93 93 95 96 97 94 93 93 91 91 91 93 98 99 100 100 99 99 98 98 93 89 89 86 84 86 91 95 97 96 88 83 83 84 81 72 66
16 25 29 32 34 32 29 26 25 25 20 18 18 18 16 14 14 13 13 14 14 15 16 21 24 26 29 29 32 35 38 42 46 50 51 50 48 48 47 47 47 47 48 47 47 48 48 51 54 58 61 64 68 71 74 79 82 85 88 88 89 89 92 95 96 94 92 92 91 88 87 92 98 98 100 100 99 100 99 100 99 95 91 87 86 89 90 89 90 94 94 89 88 91 90 84 73
18 25 28 31 31 29 28 24 23 21 16 17 16 15 15 14 15 14 14 14 15 14 17 25 26 26 29 32 38 43 48 53 56 58 56 53 50 48 48 50 52 52 52 52 53 53 53 54 55 57 58 60 62 63 65 68 71 75 80 83 85 85 86 89 93 95 95 94 93 91 90 94 99 99 100 100 99 99 99 100 100 98 95 91 88 88 88 89 87 85 89 87 84 86 88 88 83
14 17 21 25 28 28 26 21 17 15 14 16 15 15 16 15 15 14 14 14 15 16 20 24 23 24 29 36 45 52 57 58 57 57 52 48 45 41 40 42 46 51 53 55 57 59 62 62 62 63 64 65 65 65 64 65 66 68 71 75 79 82 83 84 86 88 90 93 94 97 97 97 99 100 100 101 100 100 99 100 100 99 98 95 92 91 88 89 90 88 88 85 82 82 81 84 86
11 11 14 20 24 22 19 16 13 13 14 16 16 16 16 14 14 14 14 14 16 19 21 22 21 22 26 32 40 44 47 43 42 43 40 39 39 36 35 36 40 44 49 53 57 60 64 66 68 69 71 72 73 72 70 70 69 68 68 68 72 76 80 81 83 84 85 87 90 97 101 99 98 99 100 100 100 100 100 100 100 100 99 96 96 97 92 89 92 91 92 93 91 89 86 85 86
11 9 14 19 17 14 13 13 13 14 16 17 16 15 16 15 13 13 15 18 21 22 22 23 22 22 24 28 31 33 33 30 31 35 39 43 45 45 44 44 46 49 54 59 62 64 66 68 70 72 74 76 77 77 77 76 75 74 72 69 69 69 72 74 77 80 82 84 86 91 96 98 98 98 100 101 101 100 98 100 100 99 100 98 97 98 97 96 97 94 94 98 97 95 94 91 88
12 10 12 15 12 12 14 14 15 15 16 16 15 15 14 14 14 15 18 20 22 23 24 24 23 24 26 27 27 26 25 26 28 30 35 43 49 53 54 54 55 59 63 66 69 70 72 73 75 76 78 78 79 78 78 78 79 79 78 78 76 72 69 68 70 72 75 78 81 84 87 89 90 91 91 93 96 95 91 92 94 95 97 99 99 100 99 99 101 96 93 97 97 93 92 94 95
12 12 11 11 12 14 15 15 16 16 16 16 15 14 12 13 15 15 19 22 22 23 24 23 22 23 24 21 20 17 16 22 23 19 18 27 43 54 59 62 62 64 67 70 73 75 77 79 80 82 83 82 81 80 78 79 79 80 82 84 86 84 79 73 70 70 70 71 73 75 78 80 82 83 84 84 85 86 82 81 83 87 91 93 96 100 100 98 100 100 97 97 97 91 88 92 97
12 11 10 11 13 14 15 16 17 16 15 16 15 12 11 11 12 13 18 23 23 24 23 20 19 18 18 13 10 9 10 14 14 12 8 15 39 56 62 66 68 69 70 72 74 77 79 81 83 85 85 84 83 81 80 80 81 82 84 86 88 91 90 86 81 79 77 75 74 73 72 72 74 76 79 81 82 82 83 82 82 85 88 89 91 96 100 100 100 100 100 100 99 96 91 90 93
11 10 11 13 14 14 15 16 16 16 14 15 14 10 10 9 9 14 19 22 23 23 19 15 13 15 15 10 8 12 12 13 12 14 13 14 32 51 63 69 71 73 73 74 76 78 80 82 84 85 85 84 82 80 80 81 82 83 84 86 87 89 92 94 94 94 92 88 85 85 84 80 77 77 77 79 82 83 85 88 88 90 91 93 94 95 95 98 100 100 100 100 101 100 98 95 92
11 11 12 13 14 14 15 16 16 15 14 14 12 9 9 7 9 14 18 21 22 20 15 11 12 15 17 12 13 18 18 19 18 19 21 19 18 28 48 63 69 73 76 77 78 79 81 83 84 84 84 83 82 80 80 81 82 83 84 85 86 86 88 91 96 99 100 98 96 96 97 95 91 92 90 87 88 88 87 89 91 93 96 99 98 97 94 91 94 97 98 100 101 100 101 100 97
12 12 13 12 12 13 16 17 17 16 15 12 10 9 8 7 10 12 15 18 18 16 13 11 12 15 18 17 19 23 24 25 25 26 24 18 14 20 39 56 65 71 75 77 79 80 80 82 83 83 83 82 82 82 82 82 82 83 84 85 85 84 84 85 89 94 97 100 100 99 100 100 99 99 99 98 96 95 94 93 94 94 95 99 99 98 96 92 91 91 93 98 99 100 100 100 100
11 12 13 12 11 14 18 19 19 19 15 10 9 9 7 8 10 11 14 15 15 14 12 12 14 16 19 21 24 27 29 30 30 28 19 16 25 37 47 56 65 71 75 78 79 80 80 81 81 82 84 83 83 83 83 84 84 85 85 84 83 81 81 81 82 86 89 93 96 98 99 100 100 100 100 100 100 99 99 99 98 96 92 93 96 98 96 94 96 93 93 96 96 97 99 98 100
12 12 12 13 12 14 20 21 20 19 14 10 10 9 7 9 10 13 15 13 14 16 15 16 17 19 21 24 27 30 33 34 32 24 14 18 31 40 50 60 65 70 74 78 80 81 81 81 80 81 82 83 84 83 81 81 81 82 83 83 82 81 79 78 79 80 83 85 87 92 97 98 98 99 99 99 100 100 100 100 100 100 96 90 92 97 98 98 98 97 97 97 96 98 96 91 95
12 12 13 15 15 16 20 20 17 16 14 11 10 8 7 10 11 13 14 13 17 20 21 22 23 24 26 27 30 33 35 36 35 23 11 20 30 32 42 49 50 55 58 65 72 75 73 71 70 70 70 71 72 74 74 72 71 71 74 78 79 81 81 80 78 78 79 81 82 85 90 94 97 97 98 99 99 100 100 100 99 99 100 97 93 94 97 100 101 99 98 100 99 100 96 89 91
13 15 17 18 17 18 20 19 17 15 14 11 9 9 9 11 12 13 14 16 21 24 25 27 28 29 29 31 31 34 38 39 34 18 9 22 31 31 35 35 35 38 39 43 49 51 49 47 47 48 50 51 51 54 56 56 55 54 56 61 65 70 77 81 81 80 80 80 81 82 83 86 90 94 96 98 99 99 100 100 100 98 97 99 99 96 95 96 99 101 100 100 100 99 98 97 95
14 18 21 21 18 20 21 20 18 16 14 12 10 9 10 11 13 14 16 20 24 25 26 27 29 30 30 32 33 36 40 38 28 12 11 22 30 34 34 32 33 33 33 32 31 29 27 25 24 25 26 28 31 34 37 39 42 42 42 43 44 46 53 62 69 74 79 81 81 81 83 83 84 86 90 94 97 98 99 98 100 100 98 97 97 98 97 94 94 98 100 100 100 99 98 101 100
15 18 20 18 18 21 23 21 20 20 18 15 11 11 12 13 15 16 19 23 24 24 26 26 28 30 31 33 34 38 37 34 26 13 14 24 33 42 47 53 54 42 26 18 17 16 14 13 11 11 11 11 12 14 17 19 22 26 27 29 32 33 34 39 43 49 61 74 79 80 82 83 83 82 82 84 88 91 93 95 97 98 98 98 96 95 96 95 93 94 97 99 100 100 100 100 100
15 17 15 13 16 19 23 24 23 23 19 15 14 14 13 13 15 19 22 24 23 25 25 26 29 31 33 34 35 38 35 32 28 23 40 54 53 57 67 80 82 58 25 8 11 13 12 14 14 14 13 13 12 11 10 8 8 8 10 12 17 23 25 28 30 30 36 48 60 70 76 79 81 82 82 80 80 81 82 84 88 91 94 96 97 95 92 92 92 91 93 94 97 98 100 100 100
14 17 15 13 15 17 23 27 23 19 15 15 17 16 13 13 16 22 25 24 25 25 25 27 31 33 36 36 38 38 34 35 31 34 64 79 73 77 85 87 78 53 25 13 16 17 18 20 20 22 23 24 25 24 22 19 16 11 6 4 5 9 12 15 18 20 21 24 32 44 57 67 73 76 79 81 81 80 78 76 76 78 81 84 87 90 90 89 89 89 89 90 92 93 95 98 100
13 17 16 15 17 15 20 24 21 16 13 14 17 16 14 14 18 25 26 26 26 25 26 29 31 35 38 38 40 39 36 39 37 44 66 73 72 80 80 72 59 43 29 21 17 16 20 24 27 29 30 33 34 35 36 35 34 27 16 8 4 4 5 6 8 10 12 13 16 20 29 44 56 63 67 73 78 81 81 79 77 74 72 72 73 75 77 79 82 84 86 87 87 86 87 90 94
14 17 18 19 18 16 16 18 19 17 13 13 16 18 15 16 23 27 27 27 26 26 27 30 32 36 39 40 41 40 40 41 45 58 68 65 57 51 47 47 44 41 35 25 19 21 26 30 33 35 36 39 42 44 45 45 46 41 30 18 9 6 6 7 8 9 10 9 10 10 12 21 35 44 47 50 57 67 76 79 80 78 75 72 70 69 68 68 70 71 73 77 79 80 80 81 84
16 16 19 19 17 18 17 15 18 18 15 14 17 20 19 21 28 27 26 27 27 27 28 30 33 37 40 41 41 41 41 43 54 67 67 58 45 32 35 44 45 43 34 24 28 35 38 39 40 42 44 47 49 52 53 54 53 49 44 34 18 9 9 11 13 17 18 15 12 10 9 11 17 24 24 24 28 38 53 66 74 78 78 77 74 72 70 69 69 67 66 66 67 70 71 73 76
20 19 20 21 19 18 17 16 18 18 16 17 19 23 25 27 30 27 25 27 28 28 29 31 34 38 41 41 41 41 41 47 62 71 66 55 40 28 31 38 38 32 25 27 37 44 45 47 49 51 53 55 57 60 60 59 58 55 54 48 30 15 14 16 19 26 33 34 27 16 10 9 9 10 10 10 12 16 26 40 55 66 72 77 77 74 72 70 70 68 67 67 66 65 65 65 67
22 23 24 26 23 18 18 17 18 20 18 19 23 26 29 31 31 27 25 27 28 28 30 33 36 40 41 41 41 40 43 54 67 68 59 45 28 20 19 17 19 21 27 37 42 44 47 50 53 55 58 60 61 61 60 59 60 60 60 59 44 23 19 26 29 33 39 46 46 35 21 12 8 7 6 6 7 8 12 18 30 46 58 68 74 74 69 65 62 57 56 58 61 63 64 64 64
23 27 28 28 24 18 18 18 18 23 22 21 26 29 31 34 33 28 27 28 28 29 32 34 37 41 41 41 42 42 49 60 64 56 42 27 14 11 9 8 15 27 36 41 42 45 49 53 56 58 59 59 58 58 59 59 63 66 65 65 57 37 27 32 39 41 41 43 48 46 34 19 10 8 6 5 6 6 7 8 13 24 38 51 61 66 63 59 54 49 46 45 45 46 49 53 59
24 28 29 28 23 17 18 19 20 26 26 24 28 32 34 37 33 28 27 28 29 30 32 35 38 40 41 43 44 48 56 60 55 42 25 13 7 5 6 13 25 35 39 40 43 48 53 57 59 60 59 56 55 56 58 58 62 69 70 68 64 54 41 37 42 47 46 43 39 36 29 18 12 9 6 5 5 5 5 5 6 9 17 27 38 46 48 46 45 42 41 41 40 38 36 37 41
25 27 29 28 24 20 18 18 20 25 28 26 30 38 38 36 30 27 28 29 29 31 33 37 39 40 43 44 45 51 57 55 45 29 12 6 5 4 9 21 31 36 38 41 45 51 57 58 57 58 57 54 53 52 52 54 59 67 74 72 69 64 56 48 47 49 50 48 41 33 27 22 20 18 16 14 13 11 8 6 5 4 5 9 17 25 28 28 30 31 30 30 33 35 35 34 33
25 26 28 26 24 25 23 20 20 24 28 30 34 40 38 32 28 27 29 28 29 32 34 37 39 40 43 43 46 51 51 46 34 17 6 6 4 4 14 26 32 35 39 42 46 53 58 58 57 56 54 52 51 48 47 50 57 64 70 73 72 67 62 58 55 55 55 53 49 44 40 39 39 38 37 35 33 29 24 19 15 11 8 5 6 10 14 16 16 17 17 16 18 23 28 32 33
26 26 27 26 24 25 25 22 22 23 27 32 37 40 34 28 29 29 28 28 29 32 34 36 37 39 41 44 47 48 44 36 26 13 7 6 3 7 19 28 32 36 39 43 48 54 55 56 58 57 54 52 50 49 46 46 52 58 61 66 69 67 66 65 60 58 58 57 55 51 50 50 50 51 51 51 48 45 42 38 33 28 23 17 11 7 6 8 8 9 9 8 9 11 16 22 26
27 28 26 25 24 23 22 23 26 27 29 33 39 46 40 29 28 30 28 28 29 32 34 35 37 39 41 45 46 44 39 31 24 16 8 4 3 11 23 28 33 38 40 44 50 55 56 58 58 56 55 54 51 48 45 44 47 51 54 57 60 62 65 67 64 60 58 57 53 49 48 49 51 53 54 56 55 53 52 49 46 43 38 34 29 22 15 8 5 5 5 4 5 6 8 12 16
28 29 27 25 24 23 22 24 30 32 32 33 39 47 42 31 29 29 28 27 29 32 35 36 38 40 41 43 43 40 36 30 27 19 8 3 4 13 24 28 34 38 41 45 48 52 56 59 58 54 52 52 50 47 44 43 43 46 50 51 53 55 57 60 60 58 55 53 51 49 48 50 51 54 55 57 57 57 56 54 51 48 46 44 41 37 31 24 15 8 4 3 2 4 4 5 8
29 30 29 27 23 23 24 25 30 34 35 35 37 38 36 32 30 30 28 28 31 33 35 36 37 39 40 41 41 38 34 33 30 18 5 2 6 16 25 28 34 38 40 45 46 44 46 50 53 52 49 47 47 47 45 44 43 42 45 47 50 52 53 55 56 55 54 53 52 51 52 54 56 59 60 60 59 58 56 54 52 49 48 46 44 42 40 37 32 24 16 9 4 3 3 3 4
31 31 31 28 25 25 26 27 30 34 39 39 35 34 38 39 32 30 30 29 33 34 34 37 37 39 41 40 40 38 36 36 29 13 3 2 7 18 24 29 35 37 39 44 44 40 37 40 45 46 46 46 47 49 48 48 46 44 43 44 46 48 48 50 52 53 53 53 54 55 57 59 61 62 62 60 58 56 54 52 50 49 47 46 45 44 43 42 41 37 31 25 18 11 4 2 4
32 32 32 29 27 26 26 31 32 35 43 41 34 34 45 49 35 28 33 32 33 36 35 38 39 40 41 39 40 40 38 36 24 9 3 3 8 18 24 30 36 37 39 43 42 40 38 37 38 39 39 41 45 49 49 50 50 49 48 47 47 48 49 50 52 55 56 57 58 60 61 60 60 60 58 57 56 55 54 52 50 49 48 47 46 44 44 44 43 41 39 35 33 29 17 6 2
33 33 34 31 30 29 30 33 30 40 52 42 32 34 45 56 42 28 34 34 34 37 36 39 40 40 40 40 42 41 39 35 19 6 3 3 8 17 23 31 37 37 39 43 42 39 38 36 35 35 35 36 40 44 46 49 51 52 53 53 53 53 53 54 55 56 57 57 58 58 58 57 57 57 57 57 57 56 54 54 53 52 51 49 48 47 45 45 43 41 41 40 39 42 36 21 8
34 36 36 32 33 31 32 35 33 48 58 40 30 34 43 55 45 31 35 35 36 40 39 41 40 39 41 42 44 43 40 32 15 5 3 2 6 14 21 31 37 37 39 44 41 37 36 36 34 34 34 34 36 40 43 46 48 50 51 51 52 52 52 53 53 54 54 54 55 55 55 55 56 56 57 57 57 57 55 55 55 54 55 54 52 51 49 47 46 44 43 42 41 44 47 40 25
35 37 36 36 43 45 48 52 47 50 51 36 34 41 45 47 39 33 36 37 40 43 42 42 40 41 43 44 46 45 39 27 12 4 3 2 5 11 20 31 36 37 39 43 41 36 36 35 34 33 33 33 35 37 40 43 45 46 47 48 49 50 51 51 52 53 53 53 54 54 54 55 56 56 57 57 57 57 57 58 58 58 58 59 58 58 56 53 50 48 46 45 43 43 47 49 43
38 39 38 40 49 58 64 66 60 55 47 38 38 45 47 42 35 36 37 38 43 46 45 44 42 44 46 47 49 45 35 23 11 4 3 2 4 9 20 31 37 37 39 43 42 38 36 34 33 33 32 33 34 36 38 41 43 44 45 47 48 49 50 51 52 53 53 53 53 53 55 55 56 57 58 59 59 59 60 60 63 65 65 64 64 64 63 61 57 53 50 48 46 45 47 51 51
39 41 42 41 43 51 59 61 59 55 50 45 42 44 46 41 38 38 37 40 46 47 48 48 46 47 48 49 50 43 32 21 11 5 3 3 3 8 19 30 37 37 38 42 42 39 37 34 33 32 31 31 32 34 37 40 42 43 45 46 47 48 49 51 53 54 53 54 54 55 57 58 58 59 61 62 62 61 62 63 66 69 70 70 69 68 67 67 65 61 55 52 49 48 49 52 52
40 42 43 44 42 43 49 51 47 46 55 59 49 43 43 42 40 38 38 43 46 48 50 50 50 51 51 52 48 39 30 21 13 5 3 3 2 6 17 28 36 39 38 41 42 41 38 34 33 31 29 29 30 31 35 38 41 43 44 46 47 49 52 55 56 57 56 57 58 59 60 62 62 63 65 67 68 67 67 67 69 72 75 76 74 71 70 69 69 67 63 58 54 51 50 52 54
40 42 45 47 44 42 47 51 47 53 70 67 48 42 45 45 43 38 40 45 47 50 52 52 54 54 53 51 43 36 30 22 14 6 3 3 2 5 15 25 35 40 39 41 44 43 39 35 33 31 28 28 29 30 33 37 40 42 44 46 48 50 54 58 60 61 61 61 62 62 64 67 67 68 71 73 74 76 76 74 74 76 79 80 79 76 72 71 71 70 67 64 60 56 53 52 55
40 42 46 47 45 45 48 53 59 72 82 68 48 48 50 49 48 42 42 46 49 52 54 54 56 56 55 49 41 36 31 23 16 7 3 4 2 5 13 22 31 39 40 42 45 46 41 36 33 32 28 27 29 30 31 35 37 41 44 45 48 51 53 57 60 62 64 65 65 66 69 73 74 74 77 78 79 81 83 82 81 82 83 83 85 83 77 73 73 72 70 67 64 61 57 55 55
41 42 45 46 49 50 46 52 66 76 83 74 57 52 52 49 47 44 44 49 51 53 54 55 57 57 56 49 41 38 32 25 18 9 4 4 2 3 11 19 27 36 41 42 45 48 44 38 34 33 29 26 28 30 31 33 35 38 42 44 46 50 53 57 60 62 65 66 68 69 71 75 79 81 81 81 82 84 86 88 88 89 89 87 88 89 84 77 73 72 71 68 66 63 58 55 55
43 43 44 44 48 52 48 51 58 63 79 87 73 61 52 44 43 46 48 52 53 54 55 56 58 59 57 50 43 39 34 26 21 12 5 3 3 3 7 13 21 32 41 42 43 48 48 41 36 34 31 27 26 30 31 32 34 36 39 42 44 48 52 56 59 62 64 66 68 70 72 75 79 82 82 82 83 86 89 91 91 92 93 92 90 92 91 85 76 72 71 69 65 62 59 55 54
44 42 44 44 48 53 52 52 50 52 73 88 85 74 52 36 43 50 51 54 55 55 57 57 59 60 58 53 46 41 36 29 23 16 8 3 3 3 4 9 15 24 37 42 43 48 50 45 38 35 34 29 26 29 31 33 34 35 37 40 43 46 50 54 58 61 62 65 68 70 71 73 75 79 82 84 87 90 93 94 93 93 95 96 95 93 95 93 85 75 70 70 67 63 60 57 55
44 43 44 46 50 54 56 61 56 52 62 68 75 77 51 32 44 50 51 56 56 57 59 59 60 61 60 57 50 43 38 32 26 20 11 5 3 3 3 7 13 19 30 40 43 45 50 49 42 37 35 31 28 28 30 32 33 35 36 38 41 44 48 51 55 59 61 63 66 69 70 72 75 78 81 86 90 93 95 96 96 96 97 99 99 97 97 98 95 83 72 68 68 64 60 57 55
Wind_Speed
11 10 9 7 7 7 6 8 11 13 12 16 17 14 14 10 7 10 13 17 18 21 22 23 23 23 23 22 23 24 23 22 22 21 19 21 22 22 22 23 23 23 24 23 22 22 23 25 24 24 25 26 28 29 21 14 13 18 27 31 33 30 28 28 28 27 26 23 22 24 24 24 23 24 24 24 23 24 24 24 23 23 23 24 25 25 25 26 26 26 26 26 26 25 23 22 22
11 11 11 7 9 11 12 14 12 10 10 17 21 17 10 8 11 15 17 21 23 25 25 24 24 24 24 24 24 24 23 23 23 24 24 24 24 23 23 23 23 23 23 23 23 23 24 24 24 25 26 28 29 31 27 19 9 3 9 24 32 31 30 28 27 26 24 22 22 22 23 23 24 24 25 24 23 23 25 25 25 25 24 24 25 25 26 26 27 27 27 27 26 26 25 23 23
13 13 12 8 11 16 19 18 13 12 11 15 19 16 9 13 14 16 19 22 24 24 25 25 25 25 25 26 26 26 24 24 24 24 25 25 25 25 24 24 24 24 24 25 24 24 24 24 24 25 27 29 31 31 28 27 23 8 7 18 27 29 30 27 24 23 22 23 24 24 24 23 24 25 25 24 23 24 24 25 25 25 25 25 25 25 26 26 27 27 27 27 27 27 27 25 24
14 16 16 14 16 19 19 16 11 13 13 11 14 14 12 13 13 15 18 20 23 24 24 24 24 25 26 28 28 27 25 25 25 25 25 26 28 28 26 26 27 26 26 27 27 25 25 25 25 26 27 28 30 30 28 30 34 28 22 26 29 27 27 26 26 25 22 23 24 25 26 24 25 25 25 23 22 23 25 25 25 25 25 25 26 25 26 25 26 26 27 27 28 27 27 26 25
15 18 21 20 20 19 16 14 11 15 17 9 10 12 12 13 16 18 17 18 23 24 24 24 24 25 27 27 27 28 28 28 29 28 28 29 30 31 29 29 30 29 28 29 29 28 26 26 27 27 27 28 30 32 30 24 26 27 26 28 27 25 24 24 25 25 23 23 25 27 27 26 25 26 26 25 22 22 24 24 24 24 25 25 25 25 25 25 25 26 26 26 28 27 27 28 26
16 19 23 22 20 20 17 17 15 17 16 9 8 9 12 15 17 17 16 17 22 24 24 25 26 27 27 27 28 28 29 29 30 30 31 32 32 33 32 31 32 32 31 31 31 30 29 28 28 29 30 31 32 35 35 28 24 22 21 22 23 23 24 24 22 22 23 25 27 27 27 26 25 26 27 28 26 23 23 23 23 24 24 24 24 25 25 24 24 25 25 25 26 27 27 27 27
18 19 22 20 19 20 19 18 16 15 14 10 7 6 11 14 16 16 18 19 23 27 27 27 27 28 27 29 30 29 28 29 30 31 32 33 34 34 34 33 34 34 34 33 33 32 31 30 29 29 32 33 35 36 38 35 32 31 29 29 29 28 27 27 26 26 26 26 27 26 26 26 27 28 28 29 29 27 25 24 23 23 23 23 23 24 24 23 24 23 23 24 24 26 26 26 27
19 20 19 17 16 17 17 16 14 13 11 8 5 5 10 12 15 17 20 23 25 28 28 25 24 26 28 29 29 29 30 30 31 31 32 33 34 35 35 35 35 35 35 35 34 33 32 32 31 31 32 34 36 38 39 39 38 39 37 31 29 30 31 30 29 29 29 29 28 26 27 28 29 29 29 29 28 28 27 26 25 24 22 21 22 22 21 21 22 21 21 21 21 22 24 25 26
19 19 17 16 15 16 17 13 13 13 8 7 6 6 9 13 16 19 23 26 28 28 27 26 26 26 26 28 29 30 31 31 32 32 33 33 35 36 36 36 36 36 35 35 35 34 33 33 32 32 33 35 37 38 40 41 41 41 38 30 25 26 30 30 27 28 29 30 31 29 26 27 28 28 28 28 28 28 27 27 27 27 25 23 21 20 19 20 21 20 20 20 20 20 20 22 23
17 17 16 15 13 14 17 13 11 10 9 9 10 12 14 17 19 23 26 28 30 27 24 25 29 28 26 29 30 31 32 32 32 33 34 34 35 36 36 37 37 37 36 36 36 36 35 35 34 34 34 36 38 39 39 40 40 39 39 36 31 26 27 29 27 27 28 30 30 28 25 25 28 29 28 27 27 27 27 29 29 26 25 24 21 20 20 19 21 21 20 20 21 21 21 21 21
15 15 14 15 13 11 14 11 8 6 7 9 13 17 19 21 24 27 29 29 30 29 25 24 28 29 28 29 31 32 33 34 34 34 34 34 34 35 36 37 37 38 38 38 38 38 37 37 36 36 36 36 38 39 40 41 40 39 38 38 37 35 33 32 31 29 29 29 28 28 27 27 28 27 26 26 26 26 27 29 29 26 25 24 21 21 21 19 20 22 22 22 22 22 23 22 22
13 14 14 15 13 10 9 5 6 4 8 12 16 20 23 26 28 29 30 30 31 30 28 27 27 26 27 29 31 31 32 34 34 34 34 35 36 36 37 37 38 39 39 39 39 39 39 39 38 38 37 37 38 39 40 41 41 40 39 38 38 38 38 36 35 34 32 31 30 30 30 30 29 27 25 25 24 25 27 29 30 29 27 24 22 24 24 21 20 21 22 24 24 24 23 23 22
13 15 14 13 9 7 4 1 3 6 12 16 18 21 25 27 28 29 30 30 31 32 29 27 27 25 26 30 30 30 32 32 33 34 36 37 38 38 39 39 40 40 40 40 40 40 40 40 40 40 39 39 39 40 41 41 41 41 40 40 40 40 39 39 38 37 36 35 34 34 34 33 32 29 27 26 25 25 26 27 28 29 28 27 25 26 28 27 25 23 22 24 25 24 23 22 22
13 14 12 11 7 3 1 2 4 10 14 16 17 20 24 27 29 30 31 31 32 35 33 28 27 28 28 29 29 29 30 31 32 35 38 41 41 41 41 41 42 42 42 42 41 41 41 41 41 40 40 40 40 40 40 40 41 41 41 41 41 41 41 40 40 40 39 38 37 36 37 37 35 33 31 30 29 28 26 25 25 26 27 28 28 29 30 29 29 27 25 25 25 25 24 23 22
10 9 9 9 6 1 2 6 10 12 14 16 18 20 23 28 29 31 33 34 33 33 31 28 28 28 27 27 28 29 30 31 32 36 41 44 45 45 45 44 43 42 42 42 42 42 42 42 42 41 41 40 39 39 39 39 39 39 40 41 41 41 42 42 42 42 42 41 41 40 38 38 37 35 34 33 33 33 31 28 26 26 27 27 28 30 32 31 31 30 29 27 26 26 25 24 23
9 10 9 7 4 2 6 9 12 13 15 16 18 20 23 28 31 32 33 33 32 30 27 28 30 29 28 28 29 30 32 34 36 39 43 45 45 46 46 46 44 43 41 41 41 41 41 41 41 41 41 40 39 38 38 38 38 38 38 39 40 41 41 42 42 43 43 43 44 44 42 41 40 38 35 35 36 37 37 35 32 31 31 30 28 29 32 33 32 31 31 30 28 27 27 25 23
10 11 9 6 5 7 10 11 13 16 16 15 18 21 23 27 31 32 31 30 28 28 28 29 31 30 28 27 28 30 33 37 40 41 44 45 45 44 43 43 43 43 42 41 40 39 39 39 40 40 40 39 39 38 38 38 38 38 37 37 38 39 40 41 41 42 43 44 45 46 46 45 45 44 41 40 41 42 41 40 38 36 35 35 33 30 30 32 34 34 33 31 30 29 27 26 24
10 12 10 8 9 11 11 13 14 13 14 18 20 21 22 23 25 28 27 28 28 28 30 30 30 28 27 28 29 32 35 38 39 41 43 44 45 44 43 42 41 41 42 41 40 38 38 38 38 38 38 38 38 38 38 38 39 39 39 38 37 37 38 39 39 40 41 43 44 46 47 47 47 47 47 46 47 47 46 45 43 41 39 38 37 34 31 30 33 35 35 32 30 30 28 27 26
11 12 12 12 12 12 11 12 11 11 16 19 20 22 25 22 22 25 24 26 29 29 30 30 31 31 30 30 31 33 35 36 36 38 42 44 44 43 43 41 40 40 40 41 39 38 37 36 36 36 36 36 37 38 38 38 38 39 38 38 38 38 38 38 38 38 39 40 42 43 45 46 46 46 47 47 48 48 48 48 46 45 44 43 41 40 37 33 31 32 35 34 32 32 30 28 28
13 12 14 15 13 11 9 9 8 14 21 19 21 27 28 25 25 25 23 23 26 27 29 32 34 33 32 30 32 35 35 34 35 39 44 44 43 42 41 40 39 38 39 39 39 37 36 35 35 35 35 35 36 37 37 38 38 38 38 38 38 38 38 38 38 37 37 38 39 40 42 43 44 45 45 45 45 46 46 47 47 46 46 45 45 44 42 40 35 32 32 34 35 34 32 31 31
14 14 16 15 12 10 8 8 11 20 26 22 25 31 29 29 28 23 21 20 23 26 30 34 35 34 31 30 34 37 35 34 36 41 45 44 43 42 39 39 38 38 38 38 39 37 36 35 35 35 35 35 36 36 37 38 38 38 38 38 38 38 37 38 38 38 37 37 37 37 38 40 41 41 42 42 42 42 43 45 45 45 44 44 44 45 45 44 40 36 33 32 34 35 35 33 33
15 14 14 13 12 12 11 12 18 25 27 26 27 30 30 30 27 23 21 20 23 28 33 35 36 34 31 31 34 37 36 35 37 39 42 46 45 43 39 37 37 38 38 38 38 38 36 36 35 35 35 36 36 37 38 38 38 38 38 37 38 38 38 38 38 38 37 37 37 36 35 37 37 38 39 39 39 39 40 41 43 44 44 43 43 45 46 46 44 42 39 34 32 34 36 37 37
13 12 11 14 16 16 15 16 22 25 27 28 28 29 29 28 26 24 24 24 27 30 33 35 36 36 33 32 32 34 35 35 36 37 44 49 44 40 38 37 36 37 37 38 38 38 37 37 37 36 36 36 37 37 38 38 39 39 39 38 38 39 38 38 39 39 39 38 38 37 36 36 37 37 38 38 38 38 39 39 40 42 44 45 46 46 47 47 46 45 44 41 37 33 34 36 38
13 13 14 17 20 19 17 16 21 24 27 29 27 28 29 27 26 25 26 27 29 30 32 34 35 36 35 34 32 32 35 37 40 44 50 48 37 35 37 36 36 37 37 38 38 39 39 39 39 39 39 39 39 38 38 39 39 39 39 39 39 39 40 39 39 40 40 40 40 39 38 38 38 38 38 38 38 38 38 38 38 40 42 45 46 46 46 47 46 45 45 44 43 41 36 35 37
15 16 17 18 20 20 17 16 21 23 27 28 27 29 28 26 25 25 26 28 29 29 31 34 35 36 36 36 34 34 36 40 45 52 54 43 33 33 35 35 35 36 37 37 38 39 40 40 41 41 41 41 41 40 40 40 40 40 40 40 40 40 41 41 40 41 41 42 42 42 40 40 40 40 40 39 38 38 39 39 39 38 39 42 44 44 43 44 45 46 46 45 44 45 44 41 39
16 16 17 18 20 20 16 17 21 23 26 28 28 30 27 24 25 25 27 29 29 29 31 34 36 37 37 37 37 37 38 41 48 57 54 40 34 33 32 34 35 35 36 36 37 38 39 40 41 42 42 42 42 42 41 40 41 41 41 41 41 41 42 42 42 41 42 42 43 43 43 42 41 42 42 41 40 39 39 39 40 40 40 39 41 44 43 42 42 44 46 46 44 44 47 47 43
17 15 16 16 18 18 16 19 21 22 25 27 28 29 26 24 25 27 29 29 29 30 33 35 37 38 39 40 41 40 40 41 50 59 52 38 35 34 33 34 35 37 38 38 38 39 40 42 43 43 43 43 44 43 43 42 42 41 41 41 41 41 41 42 42 42 42 43 43 43 44 43 42 42 42 43 42 41 40 39 39 40 42 41 40 42 44 44 42 42 43 44 45 45 46 49 48
15 14 14 14 16 14 14 18 19 21 25 27 29 27 24 24 25 26 28 28 29 32 34 36 38 40 41 42 42 42 41 44 53 57 46 36 34 33 34 34 36 38 39 41 42 43 45 46 47 47 47 46 46 47 47 47 46 44 43 42 42 41 41 41 42 42 42 44 44 44 44 45 44 43 42 43 44 44 43 42 41 39 41 42 42 41 42 45 47 44 42 41 43 46 46 47 51
12 11 12 11 12 11 13 17 17 20 24 26 29 24 21 24 23 25 27 28 31 32 35 36 38 40 41 42 42 43 44 48 56 55 44 40 39 37 37 36 39 44 45 44 45 45 45 45 45 46 46 46 45 45 46 47 48 48 48 47 46 44 43 42 42 42 42 43 45 45 46 46 46 46 45 44 43 44 45 45 45 43 42 42 43 43 42 43 46 47 46 43 41 43 45 45 47
11 9 10 11 11 10 12 16 15 19 22 22 23 20 20 24 23 25 27 28 32 33 35 36 37 40 40 41 42 43 46 52 58 54 43 42 44 45 44 42 45 51 52 50 48 47 46 44 43 42 43 44 43 42 41 41 41 42 44 46 47 47 46 45 44 44 43 43 44 45 46 47 47 47 47 46 45 44 44 44 45 46 46 45 44 44 45 45 45 47 47 47 45 43 43 43 44
12 9 11 15 16 13 9 12 14 18 21 20 19 18 21 26 25 25 27 29 32 33 35 36 37 39 39 41 41 44 49 53 57 52 41 40 44 44 44 44 49 53 53 53 52 50 50 49 47 46 46 47 47 46 44 42 40 38 38 40 42 43 45 45 45 45 44 44 44 44 45 46 47 48 48 48 48 47 46 45 45 45 46 47 46 45 46 46 46 48 48 48 48 47 46 44 44
14 12 13 18 20 17 10 10 15 18 20 20 18 19 23 27 25 25 27 30 31 33 35 35 37 38 39 40 41 45 49 52 54 47 38 39 42 43 44 48 52 53 53 53 51 49 49 50 50 50 50 50 50 49 47 46 44 41 39 38 37 37 39 40 41 42 43 43 43 43 44 45 46 47 47 48 49 50 49 48 47 47 46 46 46 46 46 46 47 48 49 49 49 48 48 48 47
15 17 18 21 23 21 14 11 14 19 20 18 15 18 23 25 24 25 27 30 31 33 34 35 37 37 38 39 41 45 48 50 48 38 34 38 43 47 49 51 53 53 53 53 49 47 47 48 49 50 51 50 50 49 48 47 46 43 40 39 38 36 35 34 35 36 37 39 40 41 42 43 45 46 47 47 48 49 50 51 50 49 48 47 47 47 46 47 47 48 48 49 50 49 47 49 51
18 20 22 23 24 22 17 13 14 19 21 17 13 17 21 22 22 25 27 29 31 32 34 35 36 36 36 37 40 44 47 48 41 31 33 41 49 52 49 48 51 52 53 51 47 45 46 46 47 47 48 48 48 48 48 47 46 42 40 39 37 35 33 31 31 30 30 33 35 37 39 40 42 44 45 46 47 48 49 51 52 51 50 49 49 48 48 47 47 49 49 49 50 51 49 48 49
18 20 22 24 24 21 17 15 15 19 20 17 14 17 20 21 22 25 28 29 31 32 33 34 34 33 34 37 40 44 47 44 34 31 36 45 53 54 50 49 50 51 50 48 46 45 44 43 43 43 43 44 45 46 47 45 43 40 38 37 35 33 32 30 29 27 27 29 32 34 35 36 37 38 40 42 44 45 47 49 51 52 52 51 50 49 48 48 47 48 49 50 50 51 52 51 50
18 18 20 24 26 22 15 13 15 18 21 17 13 16 20 20 22 26 28 29 31 32 32 33 32 31 34 37 40 44 45 38 32 35 43 51 56 55 52 50 48 46 45 45 45 44 42 41 41 40 40 40 41 42 43 43 41 39 35 34 33 30 29 29 29 28 28 29 32 34 34 34 33 33 36 39 41 43 45 47 49 50 52 52 52 51 50 49 48 47 48 49 50 50 52 53 53
18 18 18 22 27 23 11 11 14 15 20 16 12 17 19 19 23 27 28 29 30 31 31 32 31 31 34 37 40 43 41 35 35 44 51 55 55 53 51 47 44 44 45 45 44 42 41 40 40 40 39 39 39 39 40 41 41 39 34 32 31 29 27 28 29 30 31 32 34 35 36 35 34 33 35 37 40 42 43 44 46 48 49 52 53 53 53 52 51 50 50 49 49 49 49 50 52
19 18 19 21 24 21 11 11 16 14 18 15 12 18 18 20 25 26 27 28 30 30 30 30 31 32 35 37 41 41 37 36 44 52 55 55 54 52 49 45 44 45 46 46 44 41 38 37 38 39 39 39 39 39 39 39 39 37 33 31 31 29 27 26 28 30 32 34 36 37 38 37 35 34 33 34 35 36 38 39 42 44 46 49 52 53 54 55 55 54 54 53 52 51 50 49 49
21 18 21 23 22 20 11 10 16 13 15 17 13 15 18 22 25 24 26 28 29 29 29 29 30 33 34 37 41 40 38 42 51 55 55 55 54 51 48 45 46 46 45 44 41 38 35 35 36 38 40 41 40 39 38 37 37 35 32 30 30 29 28 27 28 29 31 33 34 36 37 36 35 34 32 31 31 31 32 34 37 40 42 45 48 52 54 55 56 56 56 56 56 55 54 52 51
23 22 24 24 21 19 14 15 18 14 13 16 13 16 22 21 20 23 26 27 28 28 28 29 31 34 36 39 42 41 43 50 54 55 55 56 54 50 46 46 46 45 43 40 37 36 34 34 35 36 39 40 40 39 38 36 34 33 31 30 29 29 29 29 29 30 31 32 32 33 33 33 32 31 30 30 30 30 30 31 33 35 37 40 43 48 52 54 55 56 57 58 58 59 58 56 55
24 25 25 24 20 17 16 18 19 16 11 10 15 21 19 15 19 25 26 26 27 27 27 30 33 37 39 41 41 42 48 54 54 54 56 56 53 48 46 46 46 44 40 36 34 33 34 34 35 36 37 39 39 38 36 35 32 31 31 28 26 27 29 30 31 31 31 32 32 32 31 30 30 29 29 29 30 31 31 31 32 33 34 36 38 41 45 49 53 55 56 57 59 61 61 61 60
25 26 26 22 19 16 13 13 18 20 14 12 18 16 9 15 25 26 25 26 26 26 28 32 35 39 41 42 42 45 52 53 52 54 56 55 51 46 45 46 45 42 39 35 33 33 32 32 33 35 36 36 36 36 35 33 31 29 28 26 23 23 25 27 30 31 32 33 33 32 30 29 29 29 29 30 31 32 33 34 34 35 35 35 36 37 39 43 47 51 53 54 57 60 63 64 63
25 27 26 20 17 16 11 10 14 17 14 15 15 9 11 25 29 24 25 25 25 27 30 34 37 40 42 43 44 49 53 51 51 55 56 53 49 45 45 45 43 40 38 36 34 33 32 30 30 32 34 34 33 34 33 31 29 28 26 24 21 20 21 23 26 29 31 32 32 30 29 28 29 29 31 31 32 33 34 34 35 35 36 36 36 37 38 40 43 46 48 50 52 56 60 64 65
25 28 28 21 16 13 8 9 11 12 16 16 10 10 16 24 27 24 23 23 25 30 34 37 40 42 43 44 46 51 51 50 53 55 55 51 47 44 44 44 42 39 36 35 34 33 32 29 28 30 31 32 32 32 32 30 28 26 24 22 20 19 20 20 22 25 26 27 27 27 27 27 28 29 30 31 32 32 33 33 34 35 36 36 37 38 39 40 41 43 44 45 46 49 54 59 63
27 30 31 23 14 10 7 8 9 9 14 13 9 13 13 18 25 22 19 24 29 33 37 39 41 41 42 44 47 50 50 51 55 56 53 49 45 43 43 43 41 38 35 35 34 33 33 30 28 28 29 30 29 29 29 28 26 24 22 20 18 17 18 18 18 19 20 21 22 22 24 25 25 26 28 29 30 30 32 33 34 35 36 37 38 38 39 40 42 43 44 43 42 43 48 52 58
27 31 33 24 11 8 6 7 9 7 9 9 8 12 11 14 21 18 18 27 31 35 38 38 39 40 41 44 48 50 51 53 56 55 52 47 43 42 43 42 39 36 35 34 33 32 32 31 29 28 28 27 26 25 25 25 24 22 20 18 17 15 15 16 16 16 16 17 18 19 20 22 23 24 25 26 27 28 30 31 33 34 35 37 38 39 40 41 42 44 45 44 42 42 44 47 52
27 32 35 26 11 5 3 6 8 4 6 6 4 13 15 10 14 18 23 29 32 36 37 37 39 39 42 46 48 51 53 55 57 55 51 46 42 42 41 40 37 36 34 34 33 31 31 31 30 29 28 27 25 24 23 22 22 21 19 17 16 14 14 14 14 14 15 15 16 17 18 19 20 21 22 23 24 26 28 29 30 32 34 36 38 40 41 42 43 44 45 46 44 42 44 46 48
26 31 35 27 12 4 2 3 2 3 4 4 6 20 19 8 12 23 27 29 33 36 36 38 40 41 44 47 49 52 54 56 56 53 50 46 42 42 41 38 35 34 33 33 31 30 30 30 29 28 27 26 25 23 22 21 20 19 18 17 15 14 13 13 12 13 13 14 14 15 16 17 18 19 20 21 22 24 26 27 29 30 32 33 36 38 40 42 43 45 46 46 46 43 43 45 47
25 30 34 25 9 5 4 1 2 4 6 8 16 25 17 13 20 27 25 29 33 35 38 41 41 43 46 48 51 53 54 55 54 51 49 45 42 42 41 38 35 33 33 32 31 30 29 28 28 27 26 26 24 23 21 20 19 18 18 16 15 14 13 13 13 13 13 14 14 15 16 17 18 19 19 21 22 23 25 26 28 30 30 31 33 35 37 40 41 43 45 47 47 45 43 45 47
24 29 31 19 5 5 6 3 4 5 11 20 24 19 12 16 27 28 26 30 34 37 42 43 43 45 47 50 52 53 54 54 53 50 48 45 42 41 39 37 35 33 32 31 30 29 28 27 27 26 25 24 23 22 20 19 19 18 17 17 16 15 14 14 14 14 14 15 16 17 18 19 19 20 21 22 23 24 25 26 27 28 29 30 31 32 34 36 39 41 43 45 47 47 44 44 47
21 25 25 16 6 3 2 4 3 7 21 30 20 8 11 21 29 29 27 30 35 39 43 44 45 47 48 51 52 52 53 52 52 50 47 44 43 40 38 37 35 33 31 30 29 28 28 27 26 25 24 23 22 21 19 18 17 17 17 16 16 16 16 16 16 16 16 16 17 18 19 20 20 21 22 23 25 26 27 27 28 28 28 28 28 29 31 33 35 37 40 42 44 45 45 44 46
19 22 22 18 9 2 6 9 10 14 19 19 11 11 23 29 29 26 25 31 36 39 44 45 45 47 48 50 51 51 52 51 51 49 46 45 43 40 38 37 35 33 31 30 29 28 27 26 25 24 23 22 21 20 19 17 16 16 16 16 16 16 16 16 17 17 18 18 18 19 19 20 20 21 22 23 25 27 28 29 29 29 28 27 26 26 27 29 31 34 36 39 41 43 44 43 45
17 19 21 20 12 7 9 10 11 10 8 9 11 20 34 34 25 24 29 34 36 39 45 45 45 47 48 50 51 50 51 51 50 48 45 45 43 40 38 36 35 33 31 30 29 28 27 26 25 24 22 21 20 19 17 16 16 15 15 15 15 16 16 17 18 18 19 19 19 20 20 20 21 21 22 23 24 26 27 29 29 29 29 28 25 24 23 25 27 30 32 35 37 39 41 42 42
16 16 19 19 11 7 10 8 6 3 2 9 13 20 33 29 19 27 35 34 35 40 43 44 45 48 48 49 49 49 50 50 49 48 45 44 43 40 38 37 35 33 32 30 28 27 27 26 25 24 21 20 18 18 16 15 15 14 14 14 15 15 16 17 18 18 19 19 19 20 20 20 20 20 21 23 24 25 26 28 29 29 29 29 26 23 21 21 23 25 27 30 32 35 37 38 38
16 15 16 18 9 5 8 7 5 4 1 8 13 19 28 26 22 32 35 32 37 42 43 45 47 48 48 48 49 49 49 49 48 47 45 44 43 40 37 37 35 33 32 30 28 27 27 26 26 24 22 19 17 16 16 15 14 14 14 14 15 16 16 17 18 18 18 19 19 19 19 19 19 20 21 23 24 25 27 28 29 29 29 29 27 24 21 19 19 20 22 24 26 29 32 33 34
19 17 16 18 12 8 10 6 4 4 1 5 12 16 23 28 28 32 34 36 41 43 44 46 47 47 47 47 48 48 48 49 48 47 45 44 43 40 37 37 35 33 31 30 29 27 27 26 25 24 23 20 18 16 15 15 14 14 14 15 15 16 16 17 18 18 18 18 18 18 18 18 19 20 21 23 24 26 27 28 29 29 29 29 28 25 22 19 17 16 17 19 21 24 27 29 30
20 19 17 19 17 14 13 10 10 7 3 1 3 11 27 32 26 30 39 42 44 45 46 47 46 46 46 46 47 48 47 48 48 46 45 44 43 41 38 36 35 33 31 30 29 27 27 26 25 24 23 21 19 17 16 15 15 15 15 15 16 16 16 17 17 17 17 17 17 17 17 18 19 20 21 23 24 26 27 28 29 29 28 28 27 26 23 21 17 15 14 15 17 19 22 23 24
19 21 20 21 21 16 10 7 9 9 8 6 1 10 31 36 30 38 46 44 46 47 46 47 47 45 45 45 46 46 47 48 47 47 45 44 44 42 39 37 36 34 32 31 30 28 27 26 25 25 24 23 21 18 17 16 16 16 16 16 16 16 17 17 17 17 17 17 17 17 18 18 19 20 21 22 24 25 27 28 29 30 28 27 27 26 24 22 19 16 13 13 13 15 16 17 19
Wind_Direction
91 97 97 100 99 86 62 61 60 44 35 47 55 55 47 38 9 339 333 331 330 332 331 329 326 325 327 327 325 323 320 314 312 308 301 299 300 297 294 292 289 287 287 287 285 282 280 280 276 266 259 257 255 254 253 263 260 248 249 249 250 253 256 258 260 259 257 261 268 269 268 270 272 272 270 268 268 268 267 266 266 265 263 263 263 263 264 263 262 261 259 259 259 255 245 238 237
88 91 95 92 85 82 66 61 60 37 41 65 57 47 40 351 339 341 337 335 338 340 335 335 333 332 330 327 324 322 317 312 313 310 307 305 303 298 294 289 286 284 283 282 281 280 278 276 271 262 254 249 252 257 253 245 232 159 221 240 245 250 257 262 264 263 260 261 267 273 273 272 270 270 271 272 272 269 266 266 265 266 264 262 261 260 261 261 261 260 258 258 259 259 254 245 239
83 83 85 79 71 78 72 63 61 41 45 72 55 35 359 334 348 351 341 340 344 341 339 339 337 335 329 327 325 322 318 314 313 311 308 306 302 298 295 292 289 286 282 280 278 278 275 271 266 259 255 249 248 254 255 244 234 212 194 241 252 254 257 258 259 259 261 263 264 269 274 275 275 272 271 272 274 272 269 267 264 263 263 261 258 257 259 259 259 258 257 256 257 259 258 251 243
83 83 76 73 68 74 71 60 55 42 44 64 48 25 356 347 347 339 331 336 343 342 340 338 336 333 326 325 325 324 321 317 313 310 307 303 300 298 298 296 293 290 286 283 281 278 274 270 265 260 254 248 246 246 250 249 244 244 245 255 260 255 253 252 256 257 258 265 266 268 271 273 277 277 274 273 273 273 272 268 263 261 258 257 255 255 257 257 257 257 256 255 256 256 257 255 249
80 83 73 72 68 68 65 58 59 56 54 46 39 20 353 339 323 320 322 331 341 341 339 335 331 325 321 322 320 320 317 315 314 312 308 303 300 299 299 298 295 292 289 286 284 280 276 272 266 261 253 245 245 241 238 242 245 246 251 255 253 252 251 251 256 258 261 268 271 273 274 270 272 275 275 273 268 267 269 266 262 258 255 254 254 254 255 256 256 257 257 256 256 254 254 256 252
84 88 76 73 71 68 57 62 73 71 58 7 17 15 332 320 313 315 322 334 340 338 337 332 326 322 319 317 315 316 315 314 313 311 308 304 303 300 299 298 295 293 291 289 286 283 279 275 269 263 257 249 244 239 235 237 237 231 234 242 249 260 264 261 260 265 272 273 272 275 274 269 269 272 273 273 269 265 264 263 261 258 255 253 254 255 256 257 256 256 258 258 258 255 253 253 252
85 86 77 71 69 67 56 67 73 64 55 9 13 1 321 314 314 317 320 331 336 336 337 332 327 323 319 315 315 315 313 313 312 309 307 305 304 301 299 298 296 294 292 290 286 284 280 275 270 263 260 255 248 241 237 239 241 239 245 255 260 264 268 269 269 272 277 275 273 272 270 270 270 269 269 271 270 266 262 261 261 259 256 254 255 258 259 259 257 257 258 259 259 258 255 253 253
78 79 77 68 62 66 63 74 66 49 58 36 17 341 325 317 316 318 320 329 334 334 334 329 325 321 316 315 314 312 311 312 310 307 304 303 302 301 300 298 297 295 292 290 287 283 279 275 270 265 261 258 254 247 242 242 243 247 255 264 265 263 262 266 268 269 271 271 271 272 270 270 268 266 265 265 264 262 261 258 255 256 256 255 255 257 258 259 258 258 257 256 256 256 256 255 253
82 81 78 70 62 73 74 71 60 47 42 16 351 326 320 315 316 317 320 326 328 332 333 328 323 319 315 314 312 309 310 309 305 304 303 302 301 300 298 296 294 293 291 289 287 283 279 274 270 267 262 259 258 254 250 248 247 250 254 256 257 261 260 259 260 260 262 263 267 270 267 264 263 262 259 257 256 257 257 253 252 253 252 252 253 256 256 255 255 256 256 254 253 251 252 253 251
80 81 80 75 65 74 73 59 51 37 6 349 325 311 309 310 314 315 317 321 323 330 336 329 321 320 318 315 311 309 309 306 304 303 303 301 298 297 294 293 291 289 288 287 286 284 280 276 272 268 264 260 258 257 256 254 253 252 254 253 250 252 254 254 253 252 254 255 258 260 256 256 257 255 252 248 247 251 253 253 253 250 246 247 250 255 254 251 250 251 254 253 251 251 251 250 248
70 80 81 78 70 71 73 62 48 15 336 329 313 312 315 317 317 315 317 322 325 330 334 327 321 322 320 313 309 308 307 304 304 303 301 298 294 292 289 288 287 286 284 284 283 283 281 278 275 271 267 263 260 259 258 258 257 254 253 253 250 248 248 251 250 249 250 249 250 251 250 251 244 239 240 239 242 245 248 251 251 244 238 243 249 252 250 247 249 249 250 252 252 251 250 248 245
65 83 87 82 83 92 97 76 38 351 309 320 324 322 323 322 318 317 321 326 327 326 330 328 326 326 319 312 309 307 305 303 304 302 298 294 291 289 287 286 285 284 282 281 281 280 280 278 276 274 270 266 263 260 260 259 259 258 255 254 252 250 248 248 248 247 248 247 247 247 248 247 239 235 235 236 242 242 240 241 244 242 237 239 244 246 245 243 246 247 246 249 251 251 248 244 241
78 92 95 91 98 121 126 80 22 330 323 336 333 324 322 320 318 321 326 328 327 326 333 334 331 328 318 313 310 308 306 304 303 300 295 291 289 289 289 289 287 286 284 283 281 280 279 278 276 274 272 269 266 262 261 260 259 259 258 256 255 253 251 248 247 246 246 246 246 245 245 242 239 240 241 242 247 239 228 227 233 237 238 242 242 239 241 241 242 244 243 244 246 247 244 240 238
88 96 96 100 118 151 137 324 335 328 336 341 331 328 327 324 324 328 330 330 331 332 338 338 333 327 321 317 314 311 307 304 303 300 296 295 295 295 296 295 294 292 290 288 286 283 281 279 278 276 274 271 269 266 263 261 260 259 258 257 256 255 253 251 248 246 245 244 244 245 243 242 240 239 242 245 247 241 230 226 229 232 237 246 247 241 239 239 241 243 242 242 242 242 242 239 239
76 78 79 100 129 163 6 345 339 333 340 342 337 337 331 326 329 332 332 334 335 336 335 331 327 325 323 320 315 312 309 309 311 305 302 303 304 304 304 303 302 300 298 296 292 289 285 282 280 278 276 274 272 270 268 265 263 261 259 258 257 256 254 252 251 248 246 244 242 242 242 243 244 243 244 245 245 244 243 241 241 242 242 244 244 241 240 240 240 241 243 245 243 243 244 243 242
53 44 50 78 106 356 353 346 343 342 347 348 337 331 332 333 334 335 335 335 334 330 327 324 326 328 324 318 313 312 313 316 318 313 311 311 311 310 310 308 307 305 303 300 296 292 289 285 283 280 279 278 277 276 275 273 270 267 263 260 259 258 256 254 252 250 248 246 244 242 242 243 245 245 245 245 244 244 246 246 246 248 249 247 242 237 238 240 238 238 241 243 242 243 246 245 243
36 35 37 50 41 5 356 351 352 353 351 342 329 332 341 339 335 337 336 332 328 325 327 328 330 331 325 319 314 314 316 319 321 320 319 317 315 315 315 313 311 309 306 301 297 293 290 287 285 283 282 281 281 282 282 282 281 279 275 270 266 262 260 257 255 253 250 249 247 245 245 244 245 246 246 246 246 245 245 245 245 246 249 249 245 237 234 236 237 236 235 235 239 241 242 243 242
34 34 33 38 27 11 2 354 356 356 348 336 332 341 348 343 337 338 334 328 329 329 330 331 331 331 327 324 321 321 321 320 322 325 325 322 319 317 316 315 313 311 307 302 298 296 292 289 287 285 284 283 284 285 286 286 286 286 285 283 279 273 268 263 260 257 254 251 249 248 248 247 247 248 247 247 248 248 247 245 246 246 246 246 245 242 238 234 233 235 234 231 234 238 238 238 237
36 28 25 37 33 20 1 348 353 354 350 340 335 346 352 352 344 338 333 329 331 331 330 332 333 333 332 332 333 331 327 322 323 327 328 324 320 318 315 315 313 310 307 304 301 298 295 291 288 286 285 285 285 286 287 287 287 287 286 286 285 284 280 275 269 265 261 257 254 251 250 249 249 249 249 248 248 248 248 248 248 247 245 244 244 245 245 243 237 234 236 235 232 233 235 233 230
33 19 21 35 30 19 359 345 351 352 355 346 339 349 354 353 347 342 338 331 329 330 332 335 336 335 335 338 340 339 333 326 325 327 329 326 321 321 318 316 314 311 309 307 305 302 299 295 291 289 287 288 288 288 288 287 286 285 285 285 284 285 285 283 281 276 272 267 263 259 255 253 252 251 250 249 249 248 248 248 248 248 247 245 245 245 245 248 247 240 235 233 233 232 230 228 226
27 18 23 29 21 16 9 359 356 355 357 348 343 350 351 348 346 345 341 332 330 333 337 339 338 336 335 337 337 338 336 330 326 326 329 329 324 322 321 318 316 313 311 310 308 305 301 298 295 293 292 291 291 290 289 287 286 284 283 282 282 283 283 284 284 282 279 274 270 267 263 259 257 255 253 251 250 249 248 247 247 247 247 247 245 246 246 245 246 244 237 228 225 227 228 225 223
22 25 25 18 15 21 18 5 358 358 355 345 344 348 345 344 345 347 344 338 337 338 340 341 339 335 333 335 335 335 334 329 327 326 328 331 325 319 319 320 317 315 312 309 308 305 302 299 297 295 295 294 293 292 290 288 286 284 282 280 280 280 280 280 281 281 279 276 273 270 266 263 259 257 256 254 253 251 249 248 247 245 245 246 246 247 248 246 244 244 245 238 226 221 224 227 227
26 32 23 6 10 17 14 4 358 356 350 343 343 343 342 344 347 348 347 344 341 340 340 340 338 334 330 332 335 335 332 328 328 328 330 332 325 317 318 320 318 315 312 310 307 305 303 300 299 298 297 295 294 293 291 289 287 285 283 281 280 279 278 277 277 277 275 274 273 270 266 264 261 258 257 256 255 253 250 248 248 246 244 245 246 248 248 249 248 247 249 249 243 232 222 224 228
25 27 19 5 4 10 11 1 353 352 344 340 341 340 343 347 349 349 348 346 341 337 337 337 336 334 329 327 330 330 329 330 332 335 337 335 328 322 322 320 320 318 313 310 307 304 302 301 301 300 300 299 297 296 294 292 290 287 285 284 282 280 278 277 274 273 272 271 271 269 265 262 260 258 257 255 255 254 252 250 248 248 246 245 245 248 248 249 251 251 250 250 250 247 235 225 225
21 22 17 6 1 4 7 355 346 347 341 338 339 340 345 350 350 349 348 344 336 332 332 334 335 334 331 326 325 326 328 331 334 339 341 338 332 329 327 324 323 319 315 311 307 304 303 302 301 300 300 299 298 297 296 295 293 291 288 286 284 282 280 277 275 272 270 269 268 267 265 262 259 258 257 255 254 252 251 250 249 247 247 245 243 244 245 246 249 250 249 248 248 247 245 238 229
22 20 16 7 359 357 355 346 341 343 340 337 339 340 347 352 350 349 346 340 333 329 330 331 333 333 330 326 325 326 328 330 335 339 340 338 335 332 328 327 325 322 319 316 311 307 306 305 303 301 300 299 298 296 295 295 295 294 292 290 288 285 281 278 275 272 269 268 266 265 263 261 258 257 256 254 253 252 250 249 248 247 247 245 242 241 242 242 244 246 245 244 244 244 246 244 235
24 21 22 11 356 349 343 337 335 339 338 337 338 340 347 353 352 349 343 337 331 330 330 329 331 331 329 327 326 325 325 328 334 336 336 337 337 333 329 327 326 323 320 317 313 310 306 304 302 299 297 296 295 294 292 292 291 292 292 291 290 288 285 281 277 274 270 268 267 265 263 261 258 256 254 252 251 251 250 249 248 247 246 247 245 242 241 241 242 242 241 240 241 242 242 243 240
26 26 28 11 353 344 328 325 326 335 339 336 337 340 345 351 352 346 338 334 333 331 331 330 330 329 328 328 325 322 323 328 333 335 336 338 337 333 329 326 323 320 317 315 312 309 306 303 300 298 295 292 290 289 288 287 286 285 285 284 285 285 284 283 281 278 273 270 267 266 265 263 261 258 255 252 250 249 249 248 249 248 247 247 248 246 244 243 243 244 243 240 239 239 237 239 241
25 33 29 8 356 342 317 321 327 333 337 334 335 339 342 347 347 341 336 336 336 334 332 331 329 327 326 326 324 322 325 330 334 338 339 340 339 334 330 326 321 320 319 317 313 311 310 307 306 303 301 298 295 291 288 286 284 282 281 279 278 277 277 278 278 279 277 273 270 268 266 264 263 261 258 255 252 250 249 248 247 248 248 247 247 248 248 246 246 247 247 244 241 238 235 233 235
18 26 13 4 7 358 323 321 327 324 327 333 334 330 334 346 346 338 337 337 336 335 332 330 326 323 322 323 323 324 328 331 337 342 342 340 338 334 331 326 320 320 322 322 321 320 319 317 316 314 311 309 308 305 301 297 293 289 285 280 276 274 273 272 273 274 274 274 272 270 269 267 265 263 262 259 256 253 251 249 247 246 246 247 247 247 249 249 248 249 251 250 246 243 238 234 232
9 12 3 3 6 7 340 315 323 323 327 336 333 321 331 346 346 337 336 335 334 334 331 328 324 320 318 320 322 325 330 334 339 345 343 336 334 330 325 319 317 319 323 324 322 321 320 320 320 318 316 314 314 313 311 309 307 304 298 289 283 277 273 271 270 270 270 270 270 270 270 268 267 265 263 262 260 258 255 252 250 248 246 246 246 246 247 248 248 248 250 252 252 249 246 241 237
2 8 8 9 3 1 357 326 325 327 329 337 331 321 333 345 344 336 333 331 332 332 330 326 321 318 317 318 321 327 332 336 341 344 340 332 328 322 317 315 316 319 322 322 319 317 316 316 317 315 314 313 312 311 310 309 309 308 305 301 295 288 281 275 272 270 268 267 266 267 266 266 266 266 265 263 262 261 259 256 253 251 249 247 246 246 246 246 247 247 248 250 252 253 251 249 246
9 9 6 6 359 353 354 345 331 325 328 337 329 318 330 341 338 333 330 328 329 329 328 324 320 318 317 319 323 328 334 338 340 340 333 327 325 321 317 316 317 318 320 319 316 315 314 313 312 311 309 308 307 306 305 305 305 304 302 301 299 296 291 284 279 275 271 268 265 263 262 262 262 262 264 263 262 261 261 259 257 254 251 250 248 247 247 246 247 247 247 247 249 251 252 251 251
12 10 5 359 357 352 344 345 337 324 327 334 323 312 323 331 329 329 328 325 326 327 325 322 319 317 317 321 325 330 335 338 337 332 326 326 326 323 318 315 316 317 316 314 313 312 311 309 307 305 304 303 302 302 301 300 298 296 296 297 298 297 295 291 287 283 279 274 268 263 260 259 258 258 260 260 260 259 259 259 259 257 254 252 250 248 247 247 247 248 248 248 248 249 251 251 252
7 8 2 352 352 351 341 341 339 324 324 328 320 315 317 320 323 328 328 324 323 324 321 319 316 316 320 323 327 332 335 336 333 326 323 325 325 323 320 317 315 314 312 311 311 310 308 306 304 302 301 301 300 299 297 295 293 291 292 294 294 293 292 292 291 288 285 282 278 273 266 262 260 259 258 257 256 255 256 256 257 258 257 255 252 250 247 246 246 247 248 248 249 249 250 251 252
3 3 357 343 340 345 342 339 339 325 321 324 318 313 311 311 319 325 325 323 322 321 317 315 315 317 322 326 330 332 333 334 331 325 324 325 324 323 321 319 315 312 312 312 312 312 312 311 310 308 305 303 300 298 297 297 295 293 290 289 287 286 285 287 289 287 283 280 280 279 278 275 272 268 262 257 254 252 252 253 253 254 255 255 254 252 250 247 246 246 247 247 247 249 250 251 252
2 356 349 339 335 341 344 339 347 328 316 325 317 309 308 306 314 320 322 323 321 319 315 314 317 320 325 328 330 331 332 333 330 328 327 325 323 322 321 319 318 317 316 316 316 317 318 317 315 314 311 308 305 305 304 303 300 297 292 286 281 278 276 276 278 279 278 276 275 276 278 280 280 276 268 261 257 254 252 251 250 250 250 251 253 252 251 250 248 248 248 248 247 247 248 251 252
5 353 341 336 334 339 345 345 351 330 311 323 314 304 305 302 309 317 321 323 320 317 315 316 319 322 326 328 328 330 332 332 331 330 327 325 325 325 324 323 322 320 320 320 321 321 320 319 318 318 316 314 313 312 309 306 302 299 294 285 278 274 271 268 267 268 270 270 271 274 277 280 281 280 276 273 269 265 260 257 253 250 248 247 248 250 250 251 250 250 250 249 250 249 248 249 251
7 356 339 334 335 337 342 344 348 339 314 321 315 296 299 302 308 317 322 323 320 316 316 318 320 323 324 325 328 331 332 331 331 329 327 327 328 327 325 324 322 322 322 322 322 321 321 322 322 322 320 318 317 315 312 309 305 300 293 283 277 274 270 266 265 264 264 266 268 270 274 276 278 279 280 280 277 274 268 262 258 254 251 248 246 246 248 249 250 250 251 251 251 251 250 249 249
9 1 344 336 338 337 333 332 344 352 323 319 321 300 297 301 310 323 326 324 321 317 317 320 321 322 322 325 330 333 332 330 328 328 329 331 330 327 324 323 322 323 324 323 323 324 323 325 326 324 321 320 318 317 315 313 308 300 291 282 277 275 271 267 265 264 265 266 268 269 271 274 276 278 279 280 279 276 273 268 264 260 257 254 251 248 247 248 249 250 250 251 251 251 250 250 249
11 3 350 338 337 332 323 322 333 347 344 336 331 310 296 305 322 329 329 326 322 319 319 322 322 322 324 328 332 333 331 328 327 330 333 332 329 326 323 322 324 325 326 327 327 327 328 329 328 324 322 321 319 318 317 316 312 304 295 286 277 271 269 269 267 265 265 266 268 270 273 276 278 279 280 280 281 280 279 277 273 269 265 262 258 255 252 251 250 249 249 250 250 250 250 249 248
9 5 354 339 331 327 318 317 323 334 354 2 339 321 295 312 324 330 329 326 324 320 321 323 324 325 327 329 331 329 327 325 328 333 334 332 328 325 323 324 326 327 328 331 332 332 332 331 327 324 322 321 320 319 319 320 319 313 305 296 282 267 262 264 266 266 265 265 267 270 273 277 280 282 282 282 281 281 281 280 278 275 272 269 266 262 260 257 254 251 250 249 249 250 250 249 247
6 2 356 345 330 323 314 319 321 320 336 346 335 323 303 310 320 330 329 327 326 323 324 325 326 328 328 328 327 325 324 326 332 335 334 331 327 324 324 326 329 329 329 332 334 335 334 331 328 325 324 323 323 323 324 324 323 320 316 309 297 280 268 263 265 268 269 270 272 275 277 280 282 283 283 282 281 280 279 278 276 275 273 271 269 265 263 260 258 256 253 251 250 250 250 249 247
358 358 359 351 331 323 318 319 317 307 317 328 315 301 303 304 316 329 329 329 329 327 329 328 328 328 326 325 323 322 326 330 335 335 333 331 327 324 325 329 331 330 329 332 335 337 336 336 332 328 327 327 328 329 328 328 327 326 323 318 310 297 286 278 275 275 277 278 279 280 281 282 282 283 283 283 282 282 281 279 278 276 274 272 270 267 265 263 261 259 257 254 252 251 250 249 248
352 356 360 353 330 322 328 317 317 307 307 309 299 311 310 297 312 330 331 329 332 330 330 329 327 325 322 321 322 325 331 334 336 334 332 331 327 325 328 331 332 331 330 333 336 337 338 338 336 333 331 331 332 332 331 330 329 328 327 324 319 309 301 296 291 288 286 286 286 286 286 286 286 285 285 284 284 283 281 280 279 277 276 274 272 269 267 265 263 261 259 256 254 253 252 250 249
349 354 357 355 335 320 339 327 319 302 287 286 303 338 339 304 312 332 332 328 331 330 329 327 324 321 320 323 327 331 334 336 335 333 332 332 328 326 330 332 332 331 331 333 336 337 337 338 339 337 337 337 337 334 333 333 332 332 331 329 326 321 315 311 307 303 299 297 297 295 294 293 292 291 290 289 288 287 285 283 281 280 278 275 273 271 268 266 264 262 260 257 254 252 252 251 250
349 352 355 358 352 333 359 335 311 269 278 279 279 333 337 310 312 327 328 328 330 329 328 325 322 323 325 329 333 335 336 336 334 332 332 333 329 327 331 333 332 331 332 333 335 337 337 339 339 340 340 341 342 341 339 338 337 337 338 337 336 331 326 322 318 314 310 307 306 305 303 302 302 301 300 300 298 296 293 290 287 283 280 276 273 271 269 266 264 262 261 259 255 251 250 251 251
351 352 356 360 357 344 8 341 311 218 280 279 283 320 321 275 298 322 325 328 330 330 329 327 327 330 332 334 336 337 336 335 333 332 333 335 331 329 332 334 332 331 332 333 335 336 338 339 338 339 341 343 346 347 346 345 344 344 344 343 342 339 335 332 329 325 323 322 322 321 320 319 318 317 315 314 311 308 304 300 296 290 285 280 275 270 268 265 263 262 261 259 257 251 248 248 250
350 353 0 4 356 348 2 341 312 256 262 291 312 319 310 271 302 322 325 327 331 333 334 334 335 336 335 336 338 337 335 334 333 333 335 336 333 331 334 335 333 332 332 334 336 337 337 337 337 339 342 344 348 350 351 352 352 351 350 349 348 347 347 345 343 341 340 341 341 339 338 338 336 335 333 330 326 322 318 313 308 302 295 288 281 274 269 265 261 259 258 258 257 253 247 245 246
351 357 5 12 17 2 350 309 319 284 281 306 316 314 295 295 317 327 326 329 334 336 337 339 339 338 338 337 336 334 333 333 333 334 336 337 334 333 334 334 334 334 333 334 336 336 336 335 336 339 341 344 348 351 354 356 356 356 354 354 354 355 355 354 351 349 348 349 350 349 347 346 347 346 344 342 339 335 331 326 320 314 306 297 288 280 274 268 263 259 255 254 254 254 250 244 243
351 358 5 11 31 55 306 291 305 286 297 310 317 311 297 310 324 328 327 332 336 336 338 341 340 340 338 335 333 332 332 334 335 335 337 337 336 335 335 335 334 333 333 334 336 335 333 333 335 337 340 343 346 350 354 358 358 358 357 356 356 356 356 353 349 347 347 348 348 349 347 346 348 349 348 347 345 344 342 338 333 326 318 308 297 287 278 271 266 262 257 254 251 250 249 246 243
346 352 360 360 358 291 269 280 278 281 296 309 312 304 307 313 321 326 329 334 335 336 337 340 341 339 335 332 331 332 333 335 336 336 337 338 337 337 336 335 334 333 333 334 335 334 331 331 333 335 338 341 344 348 352 356 358 358 358 356 354 353 351 348 345 343 344 345 344 343 343 343 345 347 347 347 347 346 346 345 343 338 331 322 310 298 285 276 269 263 259 256 252 249 247 245 243
339 346 355 354 342 316 309 295 286 285 285 298 296 303 315 322 328 332 334 335 335 335 336 339 338 335 333 332 332 333 334 336 336 337 338 338 338 338 336 336 336 334 333 334 334 332 329 329 331 333 336 338 340 344 348 351 354 355 354 352 349 348 345 343 342 341 340 340 339 339 340 340 341 344 346 346 346 346 345 345 345 344 340 333 324 311 297 283 274 266 261 257 254 251 249 246 244
327 336 349 351 342 329 332 317 307 327 273 287 291 301 313 319 325 331 333 334 334 333 334 336 335 332 332 332 333 334 334 335 336 338 339 338 339 339 337 337 337 335 333 332 332 331 328 327 328 330 331 334 336 338 342 345 347 348 347 345 343 341 340 339 338 337 337 336 336 336 337 339 340 342 344 346 345 344 343 343 343 344 344 342 335 325 312 297 283 273 266 260 256 253 252 249 245
318 321 335 346 343 308 326 328 313 332 309 295 301 305 312 314 317 327 332 332 332 333 334 334 332 331 332 332 334 335 334 334 336 339 340 338 339 340 337 336 337 335 333 330 330 331 328 324 325 326 326 328 331 332 334 337 339 340 338 337 337 336 334 334 333 333 333 333 333 333 335 337 338 340 341 343 343 343 342 341 340 341 343 345 343 336 328 316 300 285 274 266 260 256 253 251 246
315 315 322 338 340 302 307 306 261 280 263 299 312 311 318 326 326 326 333 334 332 334 334 332 331 330 332 333 334 334 333 333 336 340 340 338 339 340 338 336 337 336 333 329 329 330 327 322 321 322 321 321 325 326 327 330 331 331 330 330 331 330 329 329 328 328 328 329 330 330 331 332 333 335 337 340 342 343 342 341 339 338 339 343 346 345 342 337 323 305 287 272 264 258 253 250 247
312 312 313 322 327 315 306 291 264 258 216 238 333 299 313 333 339 330 334 336 333 334 332 329 329 330 332 333 333 334 333 333 336 340 340 338 338 340 339 337 336 337 334 330 328 327 325 320 317 317 317 316 318 319 320 322 322 323 323 324 325 324 324 324 322 322 323 324 325 324 324 327 328 330 333 337 340 342 343 342 340 338 337 339 345 348 349 348 344 331 309 287 270 259 253 249 245
309 309 305 308 317 315 306 291 269 244 226 256 242 278 310 337 347 334 336 337 333 334 330 326 328 330 332 333 333 334 333 333 336 339 341 340 338 339 339 337 336 337 337 331 326 325 323 320 315 314 314 312 312 313 313 314 315 316 317 317 319 320 319 319 317 316 317 318 319 318 318 321 324 326 329 333 337 338 341 342 341 340 338 337 340 346 350 351 351 348 333 310 287 267 256 248 244